^^
Saratoga-Weather Station Historical Data
Daily Summary for January 11, 2021 Units:  English    Metric   Both
Daily Weekly Monthly Yearly Custom
  High: Low: Average:
Temperature: 72.3 °F 55.6 °F 64.9 °F
Dew Point: 63.1 °F 53.2 °F 59 °F
Humidity: 96% 56% 82%
Wind Speed: 11mph 0mph 2mph
Wind Gust: 13mph - -
Wind- - WSW
Pressure: 30.1 in 30 in -
Precipitation: 0.06 in    
Historical Graphs
 
 
Tabular Data for January 11, 2021
Time Temperature Dew Point Pressure Wind Wind Speed Wind Gust Humidity Rainfall Rate (Hourly) solar
00:03 62.8 °F 61.3 °F 30 in Calm   1 mph 95% 0 in 0 W/m2
00:08 62.8 °F 61.3 °F 30 in Calm     95% 0 in 0 W/m2
00:13 62.8 °F 61.3 °F 30 in Calm     95% 0 in 0 W/m2
00:18 62.8 °F 61.3 °F 30 in Calm     95% 0 in 0 W/m2
00:23 62.8 °F 61.3 °F 30 in Calm     95% 0 in 0 W/m2
00:28 62.8 °F 61.3 °F 30 in Calm     95% 0 in 0 W/m2
00:33 62.8 °F 61.3 °F 30 in Calm     95% 0 in 0 W/m2
00:38 62.8 °F 61.3 °F 30 in ESE 0.9 mph 1 mph 95% 0 in 0 W/m2
00:43 62.8 °F 61.3 °F 30 in ESE 0.9 mph 2 mph 95% 0 in 0 W/m2
00:48 62.8 °F 61.3 °F 30 in ESE 2 mph 2 mph 95% 0 in 0 W/m2
00:53 62.8 °F 61.3 °F 30 in Calm   2 mph 95% 0 in 0 W/m2
00:58 62.8 °F 61.7 °F 30 in Calm   2 mph 96% 0.03 in 0 W/m2
01:03 62.8 °F 61.7 °F 30 in Calm   1 mph 96% 0.04 in 0 W/m2
01:08 63 °F 61.9 °F 30 in Calm   2 mph 96% 0.04 in 0 W/m2
01:13 63 °F 61.9 °F 30 in ENE 0.9 mph 2 mph 96% 0.04 in 0 W/m2
01:18 63 °F 61.9 °F 30 in Calm   1 mph 96% 0.04 in 0 W/m2
01:23 62.8 °F 61.7 °F 30 in ENE 2 mph 2 mph 96% 0.04 in 0 W/m2
01:28 63 °F 61.9 °F 30 in East 2 mph 2 mph 96% 0.04 in 0 W/m2
01:33 63 °F 61.9 °F 30 in Calm   1 mph 96% 0.04 in 0 W/m2
01:38 63 °F 61.9 °F 30 in Calm   2 mph 96% 0.04 in 0 W/m2
01:43 63 °F 61.9 °F 30 in ENE 0.9 mph 2 mph 96% 0.04 in 0 W/m2
01:49 63 °F 61.9 °F 30 in ENE 2.9 mph 3 mph 96% 0.04 in 0 W/m2
01:54 63 °F 61.9 °F 30 in Calm   2 mph 96% 0.04 in 0 W/m2
01:59 63 °F 61.9 °F 30 in Calm   2 mph 96% 0.01 in 0 W/m2
02:04 63 °F 61.9 °F 30 in East 2 mph 3 mph 96% 0 in 0 W/m2
02:09 63 °F 61.9 °F 30 in SSE 0.9 mph 2 mph 96% 0 in 0 W/m2
02:14 63 °F 61.9 °F 30 in Calm   2 mph 96% 0 in 0 W/m2
02:19 63 °F 61.5 °F 30 in East 2 mph 3 mph 95% 0 in 0 W/m2
02:24 63 °F 61.5 °F 30 in ENE 0.9 mph 1 mph 95% 0 in 0 W/m2
02:29 62.8 °F 61.3 °F 30 in Calm   3 mph 95% 0 in 0 W/m2
02:34 62.8 °F 61.3 °F 30 in Calm   1 mph 95% 0 in 0 W/m2
02:39 62.8 °F 61.3 °F 30 in Calm   1 mph 95% 0 in 0 W/m2
02:44 62.8 °F 61.3 °F 30 in West 0.9 mph 3 mph 95% 0 in 0 W/m2
02:49 63 °F 61.5 °F 30 in Calm   1 mph 95% 0 in 0 W/m2
02:54 63 °F 61.5 °F 30 in West 0.9 mph 3 mph 95% 0 in 0 W/m2
02:59 63 °F 61.5 °F 30 in Calm   2 mph 95% 0 in 0 W/m2
03:04 63 °F 61.5 °F 30 in Calm   1 mph 95% 0 in 0 W/m2
03:09 63 °F 61.9 °F 30 in East 2 mph 3 mph 96% 0 in 0 W/m2
03:14 63 °F 61.9 °F 30 in Calm     96% 0 in 0 W/m2
03:19 63 °F 61.9 °F 30 in Calm   2 mph 96% 0 in 0 W/m2
03:24 63 °F 61.9 °F 30 in SW 0.9 mph 2 mph 96% 0 in 0 W/m2
03:29 63 °F 61.9 °F 30 in SW 0.9 mph 1 mph 96% 0 in 0 W/m2
03:34 63 °F 61.9 °F 30 in Calm     96% 0 in 0 W/m2
03:39 63 °F 61.9 °F 30 in Calm   1 mph 96% 0 in 0 W/m2
03:44 63 °F 61.9 °F 30 in Calm     96% 0 in 0 W/m2
03:49 63 °F 61.9 °F 30 in NW 0.9 mph 2 mph 96% 0 in 0 W/m2
03:54 63 °F 61.5 °F 30 in Calm   2 mph 95% 0 in 0 W/m2
03:59 63 °F 61.5 °F 30 in Calm   1 mph 95% 0 in 0 W/m2
04:04 62.8 °F 61.3 °F 30 in Calm     95% 0 in 0 W/m2
04:09 62.8 °F 61.3 °F 30 in Calm   1 mph 95% 0 in 0 W/m2
04:14 62.8 °F 61.3 °F 30 in Calm     95% 0 in 0 W/m2
04:19 62.8 °F 61.3 °F 30 in Calm     95% 0 in 0 W/m2
04:24 62.6 °F 61.2 °F 30 in Calm     95% 0 in 0 W/m2
04:29 62.6 °F 61.5 °F 30 in Calm   1 mph 96% 0 in 0 W/m2
04:34 62.4 °F 61.3 °F 30 in SE 0.9 mph 1 mph 96% 0 in 0 W/m2
04:39 62.4 °F 61.3 °F 30 in Calm     96% 0 in 0 W/m2
04:44 62.4 °F 61.3 °F 30 in Calm   1 mph 96% 0 in 0 W/m2
04:49 62.4 °F 61.3 °F 30 in Calm     96% 0 in 0 W/m2
04:54 62.4 °F 61.3 °F 30 in Calm   2 mph 96% 0 in 0 W/m2
04:59 62.4 °F 61.3 °F 30 in Calm     96% 0 in 0 W/m2
05:04 62.4 °F 61.3 °F 30 in Calm   2 mph 96% 0 in 0 W/m2
05:09 62.4 °F 61.3 °F 30 in Calm   1 mph 96% 0 in 0 W/m2
05:14 62.4 °F 61.3 °F 30 in Calm   1 mph 96% 0 in 0 W/m2
05:19 62.4 °F 61.3 °F 30 in ESE 2 mph 2 mph 96% 0 in 0 W/m2
05:24 62.4 °F 61.3 °F 30 in ESE 0.9 mph 1 mph 96% 0 in 0 W/m2
05:29 62.4 °F 61.3 °F 30 in SW 0.9 mph 2 mph 96% 0 in 0 W/m2
05:34 62.4 °F 61.3 °F 30 in East 0.9 mph 2 mph 96% 0 in 0 W/m2
05:39 62.4 °F 61.3 °F 30 in Calm   1 mph 96% 0 in 0 W/m2
05:44 62.4 °F 61.3 °F 30 in Calm   1 mph 96% 0 in 0 W/m2
05:49 62.4 °F 61.3 °F 30 in Calm   1 mph 96% 0 in 0 W/m2
05:54 62.4 °F 61.3 °F 30 in Calm   1 mph 96% 0 in 0 W/m2
05:59 62.4 °F 61.3 °F 30 in Calm     96% 0 in 0 W/m2
06:04 62.4 °F 61.3 °F 30 in Calm     96% 0 in 0 W/m2
06:09 62.4 °F 61.3 °F 30 in NNW 0.9 mph 3 mph 96% 0 in 0 W/m2
06:14 62.6 °F 61.5 °F 30 in Calm   1 mph 96% 0 in 0 W/m2
06:19 62.6 °F 61.5 °F 30 in Calm   3 mph 96% 0.01 in 0 W/m2
06:24 62.6 °F 61.5 °F 30 in Calm     96% 0.01 in 0 W/m2
06:29 62.6 °F 61.5 °F 30 in Calm   1 mph 96% 0.02 in 0 W/m2
06:34 62.6 °F 61.5 °F 30 in NNW 0.9 mph 1 mph 96% 0.02 in 0 W/m2
06:39 62.6 °F 61.5 °F 30 in Calm   1 mph 96% 0.02 in 0 W/m2
06:44 62.6 °F 61.5 °F 30 in Calm     96% 0.02 in 0 W/m2
06:50 62.6 °F 61.5 °F 30 in WNW 0.9 mph 3 mph 96% 0.02 in 0 W/m2
06:55 62.6 °F 61.5 °F 30 in WNW 0.9 mph 2 mph 96% 0.02 in 0 W/m2
07:00 62.6 °F 61.5 °F 30 in WNW 2.9 mph 3 mph 96% 0.02 in 0 W/m2
07:05 62.6 °F 61.5 °F 30 in WNW 2 mph 4 mph 96% 0.02 in 0 W/m2
07:10 62.6 °F 61.5 °F 30 in West 4 mph 4 mph 96% 0.02 in 0 W/m2
07:15 62.6 °F 61.5 °F 30 in West 2.9 mph 7 mph 96% 0.02 in 0 W/m2
07:20 62.6 °F 61.5 °F 30 in West 2.9 mph 4 mph 96% 0.02 in 0 W/m2
07:25 62.8 °F 61.3 °F 30 in WSW 2.9 mph 4 mph 95% 0.01 in 0 W/m2
07:30 62.8 °F 61.3 °F 30 in WNW 2 mph 6 mph 95% 0.01 in 5 W/m2
07:35 62.8 °F 61.3 °F 30 in West 2.9 mph 4 mph 95% 0.01 in 9 W/m2
07:40 62.8 °F 61.3 °F 30 in Calm   5 mph 95% 0.01 in 11 W/m2
07:45 62.8 °F 61.3 °F 30 in Calm   2 mph 95% 0.01 in 11 W/m2
07:50 62.6 °F 61.2 °F 30 in West 0.9 mph 3 mph 95% 0.01 in 12 W/m2
07:55 62.4 °F 61 °F 30 in WNW 2.9 mph 6 mph 95% 0.01 in 18 W/m2
08:00 62.4 °F 61 °F 30 in WSW 0.9 mph 6 mph 95% 0.01 in 35 W/m2
08:05 62.4 °F 61 °F 30 in West 2 mph 3 mph 95% 0.01 in 51 W/m2
08:10 62.6 °F 61.5 °F 30 in West 0.9 mph 6 mph 96% 0.01 in 60 W/m2
08:15 62.8 °F 61.3 °F 30 in West 2 mph 4 mph 95% 0.01 in 60 W/m2
08:20 62.8 °F 61.3 °F 30 in West 0.9 mph 2 mph 95% 0 in 62 W/m2
08:25 63 °F 61.5 °F 30 in West 2 mph 4 mph 95% 0 in 51 W/m2
08:30 63 °F 61.5 °F 30 in West 2 mph 3 mph 95% 0 in 47 W/m2
08:35 63.1 °F 61.7 °F 30 in WSW 0.9 mph 3 mph 95% 0 in 25 W/m2
08:40 63.1 °F 61.7 °F 30 in West 0.9 mph 1 mph 95% 0 in 42 W/m2
08:45 63.1 °F 61.7 °F 30 in West 2 mph 3 mph 95% 0 in 62 W/m2
08:50 63.1 °F 61.7 °F 30 in WSW 2.9 mph 3 mph 95% 0 in 83 W/m2
08:55 63.3 °F 61.9 °F 30 in WNW 2 mph 4 mph 95% 0 in 81 W/m2
09:00 63.3 °F 61.9 °F 30 in WNW 0.9 mph 1 mph 95% 0 in 114 W/m2
09:05 63.7 °F 62.2 °F 30 in WSW 2 mph 3 mph 95% 0 in 144 W/m2
09:10 63.9 °F 62.4 °F 30 in WNW 2 mph 2 mph 95% 0 in 123 W/m2
09:15 63.9 °F 62.4 °F 30 in WNW 0.9 mph 3 mph 95% 0 in 121 W/m2
09:20 64.2 °F 62.8 °F 30 in WNW 0.9 mph 3 mph 95% 0 in 121 W/m2
09:25 64.4 °F 63 °F 30 in WNW 0.9 mph 2 mph 95% 0 in 130 W/m2
09:30 64.6 °F 62.8 °F 30 in SW 4 mph 5 mph 94% 0 in 149 W/m2
09:35 64.6 °F 62.8 °F 30 in WNW 0.9 mph 3 mph 94% 0 in 132 W/m2
09:40 64.8 °F 62.6 °F 30 in West 2 mph 3 mph 93% 0 in 148 W/m2
09:45 64.8 °F 62.4 °F 30 in NW 2.9 mph 6 mph 92% 0 in 236 W/m2
09:50 64.9 °F 62.6 °F 30 in WNW 2 mph 8 mph 92% 0 in 107 W/m2
09:55 64.9 °F 62.6 °F 30 in West 2 mph 4 mph 92% 0 in 174 W/m2
10:00 65.1 °F 62.8 °F 30 in NW 2.9 mph 6 mph 92% 0 in 269 W/m2
10:05 65.5 °F 63.1 °F 30 in WNW 2.9 mph 4 mph 92% 0 in 176 W/m2
10:10 65.5 °F 62.4 °F 30.1 in WNW 4 mph 8 mph 90% 0 in 151 W/m2
10:15 65.3 °F 62.1 °F 30 in NW 2 mph 6 mph 89% 0 in 128 W/m2
10:20 65.3 °F 62.1 °F 30 in West 2 mph 3 mph 89% 0 in 114 W/m2
10:25 65.3 °F 62.1 °F 30.1 in WNW 2.9 mph 5 mph 89% 0 in 424 W/m2
10:30 65.7 °F 62.6 °F 30.1 in WSW 0.9 mph 2 mph 90% 0 in 527 W/m2
10:35 66 °F 62.6 °F 30.1 in West 2 mph 5 mph 89% 0 in 146 W/m2
10:40 66.4 °F 62.4 °F 30.1 in West 4 mph 7 mph 87% 0 in 517 W/m2
10:45 66.6 °F 62.2 °F 30.1 in Calm   9 mph 86% 0 in 519 W/m2
10:50 66.7 °F 62.1 °F 30.1 in WSW 2.9 mph 7 mph 85% 0 in 501 W/m2
10:55 66.7 °F 61.7 °F 30.1 in West 4 mph 8 mph 84% 0 in 158 W/m2
11:00 66.7 °F 61.7 °F 30.1 in WNW 2 mph 8 mph 84% 0 in 355 W/m2
11:05 66.9 °F 61.9 °F 30.1 in NW 2.9 mph 5 mph 84% 0 in 297 W/m2
11:10 66.9 °F 61.2 °F 30.1 in WNW 2.9 mph 9 mph 82% 0 in 95 W/m2
11:15 66.7 °F 61.3 °F 30.1 in West 6 mph 6 mph 83% 0 in 606 W/m2
11:20 67.1 °F 61.3 °F 30.1 in WNW 2 mph 6 mph 82% 0 in 635 W/m2
11:25 67.3 °F 61.5 °F 30.1 in West 6 mph 7 mph 82% 0 in 220 W/m2
11:30 66.9 °F 61 °F 30.1 in West 2 mph 13 mph 81% 0 in 114 W/m2
11:35 66.6 °F 61.2 °F 30.1 in WNW 2.9 mph 3 mph 83% 0 in 619 W/m2
11:40 66.6 °F 61.2 °F 30.1 in West 2 mph 13 mph 83% 0 in 608 W/m2
11:45 66.9 °F 61 °F 30.1 in NW 2.9 mph 8 mph 81% 0 in 621 W/m2
11:50 67.6 °F 61 °F 30.1 in West 6 mph 7 mph 79% 0 in 624 W/m2
11:55 68.4 °F 61.5 °F 30.1 in West 2.9 mph 4 mph 79% 0 in 638 W/m2
12:00 68.7 °F 61.2 °F 30.1 in WNW 4 mph 6 mph 77% 0 in 649 W/m2
12:06 69.3 °F 61.7 °F 30.1 in WSW 4.9 mph 7 mph 77% 0 in 671 W/m2
12:11 69.4 °F 61.2 °F 30.1 in SW 4 mph 8 mph 75% 0 in 691 W/m2
12:16 69.4 °F 60.4 °F 30.1 in WNW 8.1 mph 10 mph 73% 0 in 694 W/m2
12:21 69.4 °F 60.8 °F 30.1 in SSW 2.9 mph 8 mph 74% 0 in 735 W/m2
12:26 69.4 °F 60.8 °F 30.1 in WSW 6.9 mph 10 mph 74% 0 in 784 W/m2
12:31 68.7 °F 60.1 °F 30.1 in West 6 mph 9 mph 74% 0 in 102 W/m2
12:36 68.4 °F 60.4 °F 30.1 in West 2 mph 7 mph 76% 0 in 737 W/m2
12:41 68.7 °F 60.4 °F 30.1 in NW 2 mph 7 mph 75% 0 in 130 W/m2
12:46 68.5 °F 60.3 °F 30.1 in WNW 2 mph 8 mph 75% 0 in 155 W/m2
12:51 68.5 °F 60.6 °F 30.1 in WNW 4 mph 7 mph 76% 0 in 789 W/m2
12:56 68.9 °F 60.3 °F 30 in WSW 4 mph 13 mph 74% 0 in 791 W/m2
13:01 69.1 °F 60.4 °F 30.1 in WNW 8.1 mph 10 mph 74% 0 in 775 W/m2
13:06 69.1 °F 59.7 °F 30 in WNW 4 mph 11 mph 72% 0 in 134 W/m2
13:11 69.3 °F 59.9 °F 30 in WNW 6 mph 7 mph 72% 0 in 705 W/m2
13:16 69.6 °F 60.3 °F 30 in West 2.9 mph 11 mph 72% 0 in 735 W/m2
13:21 70.2 °F 59.9 °F 30 in West 6.9 mph 12 mph 70% 0 in 758 W/m2
13:26 69.8 °F 59.5 °F 30 in WNW 2.9 mph 6 mph 70% 0 in 172 W/m2
13:31 69.4 °F 58.8 °F 30 in NW 2.9 mph 12 mph 69% 0 in 197 W/m2
13:36 69.4 °F 58.5 °F 30 in West 6 mph 8 mph 68% 0 in 881 W/m2
13:41 70 °F 59 °F 30 in SW 6 mph 9 mph 68% 0 in 666 W/m2
13:46 70.3 °F 58.8 °F 30 in WNW 4.9 mph 9 mph 67% 0 in 786 W/m2
13:51 70.3 °F 59.4 °F 30 in NW 4 mph 9 mph 68% 0 in 786 W/m2
13:56 70 °F 59 °F 30 in West 8.1 mph 8 mph 68% 0 in 141 W/m2
14:01 69.6 °F 59 °F 30 in WNW 4 mph 8 mph 69% 0 in 735 W/m2
14:06 70.2 °F 59.2 °F 30 in WNW 6.9 mph 7 mph 68% 0 in 700 W/m2
14:11 70.5 °F 58.6 °F 30 in NW 4 mph 9 mph 66% 0 in 731 W/m2
14:16 70.9 °F 58.1 °F 30 in NNW 8.1 mph 13 mph 64% 0 in 733 W/m2
14:21 70.9 °F 57.2 °F 30 in ESE 2.9 mph 4 mph 62% 0 in 733 W/m2
14:26 70.9 °F 57.2 °F 30 in West 2.9 mph 13 mph 62% 0 in 740 W/m2
14:31 71.1 °F 57.4 °F 30 in West 4 mph 10 mph 62% 0 in 763 W/m2
14:36 71.2 °F 58.5 °F 30 in WSW 8.1 mph 8 mph 64% 0 in 780 W/m2
14:41 71.4 °F 57.7 °F 30 in WNW 4 mph 8 mph 62% 0 in 137 W/m2
14:46 71.1 °F 56.8 °F 30 in West 6 mph 8 mph 61% 0 in 831 W/m2
14:51 70.9 °F 57.2 °F 30 in NW 4 mph 11 mph 62% 0 in 744 W/m2
14:56 71.2 °F 57 °F 30 in West 6 mph 10 mph 61% 0 in 721 W/m2
15:01 71.4 °F 56.8 °F 30 in WSW 4 mph 11 mph 60% 0 in 693 W/m2
15:06 72 °F 59.2 °F 30 in WSW 4 mph 8 mph 64% 0 in 705 W/m2
15:11 72.3 °F 58.1 °F 30 in WNW 4 mph 10 mph 61% 0 in 694 W/m2
15:16 72.3 °F 57.7 °F 30 in West 2.9 mph 9 mph 60% 0 in 710 W/m2
15:21 71.4 °F 56.8 °F 30 in WSW 8.1 mph 9 mph 60% 0 in 174 W/m2
15:26 71.2 °F 57 °F 30 in NW 4.9 mph 7 mph 61% 0 in 712 W/m2
15:31 71.4 °F 57.7 °F 30 in WNW 4 mph 5 mph 62% 0 in 664 W/m2
15:36 70.9 °F 56.8 °F 30 in WNW 4 mph 7 mph 61% 0 in 120 W/m2
15:41 70.5 °F 56.5 °F 30 in WNW 4.9 mph 8 mph 61% 0 in 657 W/m2
15:46 70.9 °F 55.8 °F 30 in West 8.9 mph 9 mph 59% 0 in 622 W/m2
15:51 71.2 °F 55.8 °F 30 in West 8.1 mph 8 mph 58% 0 in 610 W/m2
15:56 71.8 °F 56.1 °F 30 in WSW 11 mph 11 mph 58% 0 in 631 W/m2
16:01 71.6 °F 57 °F 30 in WSW 4 mph 6 mph 60% 0 in 601 W/m2
16:06 71.4 °F 55.9 °F 30 in West 6 mph 8 mph 58% 0 in 148 W/m2
16:11 71.1 °F 55.9 °F 30 in NW 2 mph 7 mph 59% 0 in 578 W/m2
16:17 71.2 °F 56.1 °F 30 in WNW 6.9 mph 11 mph 59% 0 in 568 W/m2
16:22 71.4 °F 55.9 °F 30 in WNW 2 mph 6 mph 58% 0 in 566 W/m2
16:27 71.8 °F 55.8 °F 30 in WNW 8.9 mph 11 mph 57% 0 in 563 W/m2
16:32 71.8 °F 56.1 °F 30 in West 2.9 mph 9 mph 58% 0 in 561 W/m2
16:37 71.8 °F 56.1 °F 30 in WNW 6 mph 6 mph 58% 0 in 543 W/m2
16:42 71.4 °F 55.9 °F 30 in WNW 2.9 mph 10 mph 58% 0 in 151 W/m2
16:47 71.1 °F 56.5 °F 30 in West 4 mph 7 mph 60% 0 in 545 W/m2
16:52 71.1 °F 55.9 °F 30 in WSW 4 mph 8 mph 59% 0 in 95 W/m2
16:57 71.1 °F 56.5 °F 30 in West 6.9 mph 9 mph 60% 0 in 512 W/m2
17:02 71.1 °F 56.8 °F 30 in WSW 4.9 mph 8 mph 61% 0 in 483 W/m2
17:07 71.2 °F 56.7 °F 30 in WSW 8.9 mph 9 mph 60% 0 in 501 W/m2
17:12 71.4 °F 55.9 °F 30 in WNW 4 mph 10 mph 58% 0 in 443 W/m2
17:17 72 °F 56.3 °F 30 in WSW 2.9 mph 8 mph 58% 0 in 445 W/m2
17:22 72.1 °F 57.6 °F 30 in WNW 8.1 mph 10 mph 60% 0 in 432 W/m2
17:27 72 °F 55.4 °F 30 in West 4 mph 8 mph 56% 0 in 401 W/m2
17:32 71.8 °F 56.1 °F 30 in West 4 mph 8 mph 58% 0 in 387 W/m2
17:37 71.6 °F 55.6 °F 30 in WNW 2 mph 6 mph 57% 0 in 380 W/m2
17:42 71.6 °F 56.5 °F 30 in West 2.9 mph 6 mph 59% 0 in 394 W/m2
17:47 71.8 °F 56.7 °F 30 in SW 0.9 mph 4 mph 59% 0 in 374 W/m2
17:52 72 °F 57.4 °F 30 in SW 4 mph 4 mph 60% 0 in 343 W/m2
17:57 72.1 °F 56.5 °F 30 in WNW 4 mph 6 mph 58% 0 in 309 W/m2
18:02 72 °F 55.9 °F 30 in West 6.9 mph 7 mph 57% 0 in 292 W/m2
18:07 71.4 °F 55.9 °F 30 in WSW 2.9 mph 8 mph 58% 0 in 278 W/m2
18:12 71.2 °F 56.1 °F 30 in West 2 mph 7 mph 59% 0 in 260 W/m2
18:17 71.1 °F 56.5 °F 30 in West 2 mph 4 mph 60% 0 in 243 W/m2
18:22 71.1 °F 56.8 °F 30 in West 2.9 mph 4 mph 61% 0 in 230 W/m2
18:27 71.1 °F 56.5 °F 30 in WNW 4 mph 5 mph 60% 0 in 218 W/m2
18:32 70.7 °F 56.7 °F 30 in West 2.9 mph 6 mph 61% 0 in 202 W/m2
18:37 70.5 °F 55.9 °F 30 in West 0.9 mph 3 mph 60% 0 in 186 W/m2
18:42 70.2 °F 56.1 °F 30 in West 2 mph 4 mph 61% 0 in 174 W/m2
18:47 69.8 °F 56.1 °F 30 in WSW 2.9 mph 3 mph 62% 0 in 160 W/m2
18:52 69.4 °F 55.4 °F 30 in West 4 mph 5 mph 61% 0 in 142 W/m2
18:57 69.3 °F 56.1 °F 30 in West 0.9 mph 3 mph 63% 0 in 111 W/m2
19:02 68.7 °F 54.7 °F 30 in West 2.9 mph 6 mph 61% 0 in 95 W/m2
19:07 68.5 °F 55.9 °F 30 in WSW 0.9 mph 2 mph 64% 0 in 30 W/m2
19:12 68 °F 55.8 °F 30 in WNW 6 mph 6 mph 65% 0 in 26 W/m2
19:17 67.5 °F 55.8 °F 30 in WSW 0.9 mph 2 mph 66% 0 in 21 W/m2
19:22 67.1 °F 55.4 °F 30 in WSW 2 mph 3 mph 66% 0 in 21 W/m2
19:27 66.7 °F 55.4 °F 30 in WSW 0.9 mph 2 mph 67% 0 in 19 W/m2
19:32 66.4 °F 55.6 °F 30 in SW 0.9 mph 3 mph 68% 0 in 19 W/m2
19:37 66.2 °F 54.9 °F 30 in WSW 0.9 mph 3 mph 67% 0 in 16 W/m2
19:42 66 °F 55.2 °F 30 in WSW 4 mph 4 mph 68% 0 in 12 W/m2
19:47 65.8 °F 55 °F 30 in WSW 0.9 mph 4 mph 68% 0 in 11 W/m2
19:52 65.8 °F 55 °F 30 in WSW 0.9 mph 3 mph 68% 0 in 7 W/m2
19:57 65.7 °F 54.9 °F 30 in West 0.9 mph 3 mph 68% 0 in 5 W/m2
20:02 65.5 °F 55.4 °F 30 in West 0.9 mph 2 mph 70% 0 in 0 W/m2
20:07 65.1 °F 55.4 °F 30 in Calm   3 mph 71% 0 in 0 W/m2
20:12 64.8 °F 55.9 °F 30 in Calm     73% 0 in 0 W/m2
20:17 64.6 °F 56.1 °F 30 in Calm     74% 0 in 0 W/m2
20:22 64 °F 55.6 °F 30 in Calm     74% 0 in 0 W/m2
20:27 63.3 °F 55.2 °F 30 in West 0.9 mph 1 mph 75% 0 in 0 W/m2
20:32 63 °F 55.6 °F 30 in Calm   1 mph 77% 0 in 0 W/m2
20:37 62.6 °F 55.6 °F 30.1 in Calm   1 mph 78% 0 in 0 W/m2
20:42 62.2 °F 55.2 °F 30.1 in Calm     78% 0 in 0 W/m2
20:47 61.9 °F 55.6 °F 30.1 in Calm   1 mph 80% 0 in 0 W/m2
20:52 61.5 °F 55.2 °F 30.1 in Calm     80% 0 in 0 W/m2
20:57 61.3 °F 55.4 °F 30.1 in Calm     81% 0 in 0 W/m2
21:02 61 °F 55.4 °F 30.1 in Calm     82% 0 in 0 W/m2
21:07 60.6 °F 55 °F 30.1 in Calm     82% 0 in 0 W/m2
21:12 60.4 °F 55.2 °F 30.1 in Calm     83% 0 in 0 W/m2
21:17 60.3 °F 55.4 °F 30.1 in Calm     84% 0 in 0 W/m2
21:22 59.9 °F 55 °F 30.1 in Calm     84% 0 in 0 W/m2
21:27 59.7 °F 54.9 °F 30.1 in Calm     84% 0 in 0 W/m2
21:32 59.5 °F 54.7 °F 30.1 in Calm     84% 0 in 0 W/m2
21:37 59.4 °F 54.9 °F 30.1 in Calm     85% 0 in 0 W/m2
21:42 59.2 °F 54.7 °F 30.1 in Calm     85% 0 in 0 W/m2
21:47 58.8 °F 54.3 °F 30.1 in Calm     85% 0 in 0 W/m2
21:52 58.6 °F 54.1 °F 30.1 in Calm     85% 0 in 0 W/m2
21:57 58.5 °F 54.3 °F 30.1 in Calm     86% 0 in 0 W/m2
22:02 58.3 °F 54.1 °F 30.1 in Calm     86% 0 in 0 W/m2
22:07 57.9 °F 54.1 °F 30.1 in Calm     87% 0 in 0 W/m2
22:12 57.7 °F 54 °F 30.1 in Calm     87% 0 in 0 W/m2
22:17 57.7 °F 54.1 °F 30.1 in Calm     88% 0 in 0 W/m2
22:22 57.6 °F 54 °F 30.1 in Calm     88% 0 in 0 W/m2
22:27 57.6 °F 54.3 °F 30.1 in Calm     89% 0 in 0 W/m2
22:32 57.4 °F 54.1 °F 30.1 in Calm     89% 0 in 0 W/m2
22:38 57.4 °F 54.1 °F 30.1 in Calm     89% 0 in 0 W/m2
22:43 57.2 °F 54 °F 30.1 in Calm     89% 0 in 0 W/m2
22:48 57 °F 54.1 °F 30.1 in Calm     90% 0 in 0 W/m2
22:53 56.8 °F 54 °F 30.1 in Calm     90% 0 in 0 W/m2
22:58 56.8 °F 54 °F 30.1 in Calm     90% 0 in 0 W/m2
23:03 56.7 °F 53.8 °F 30.1 in Calm     90% 0 in 0 W/m2
23:08 56.5 °F 53.6 °F 30.1 in Calm     90% 0 in 0 W/m2
23:13 56.5 °F 53.6 °F 30.1 in Calm     90% 0 in 0 W/m2
23:18 56.3 °F 53.8 °F 30.1 in Calm     91% 0 in 0 W/m2
23:23 56.1 °F 53.6 °F 30.1 in Calm     91% 0 in 0 W/m2
23:28 56.1 °F 53.6 °F 30.1 in Calm     91% 0 in 0 W/m2
23:33 55.9 °F 53.4 °F 30.1 in Calm     91% 0 in 0 W/m2
23:38 55.8 °F 53.2 °F 30.1 in Calm     91% 0 in 0 W/m2
23:43 55.8 °F 53.2 °F 30.1 in Calm     91% 0 in 0 W/m2
23:48 55.6 °F 53.2 °F 30.1 in Calm     92% 0 in 0 W/m2
23:53 55.6 °F 53.2 °F 30.1 in Calm     92% 0 in 0 W/m2
23:58 55.6 °F 53.2 °F 30.1 in Calm     92% 0 in 0 W/m2
Juneau County Weather
Compliments of Weather Underground - 4 mb